Location: *
(43.0833°N, 13.0500°E)
Time: 01:24:47
(UTC+00:00)

BREEZE-M DEB (TANK) - Pass Details

Date: 15 November 2019
Orbit: 333 x 16598 km, 49.4° (Epoch: 09 December)

Event Time Altitude Azimuth Distance (km) Brightness Sun altitude
Rises 16:02:51 0° 255° (WSW) 9,369 11.2 -3.9°
Reaches altitude 10° 16:12:08 10° 259° (W) 5,956 9.3 -5.5°
Maximum altitude 16:24:17 56° 337° (NNW) 1,110 3.9 -7.6°
Drops below altitude 10° 16:27:52 10° 58° (ENE) 1,833 4.4 -8.2°
Enters shadow 16:27:53 10° 58° (ENE) 1,842 4.4 -8.2°
